Location: Chojnice
(53.6994°N, 17.5675°E)
Time: 17:37:39
(UTC+01:00)

ISS - Visible Passes

Search period start: 16 January 2019 00:00
Search period end: 26 January 2019 00:00
Orbit: 404 x 407 km, 51.6° (Epoch: 17 January)

Date Brightness Start Highest point End Pass type
(mag) Time Alt. Az. Time Alt. Az. Time Alt. Az.
23 Jan -1.1 18:37:43 10° S 18:38:06 12° S 18:38:06 12° S visible
24 Jan -1.3 17:47:29 10° SSE 17:48:06 10° SE 17:48:29 10° SE visible
24 Jan -0.8 19:20:52 10° SW 19:21:11 12° SW 19:21:11 12° SW visible
25 Jan -2.2 18:29:17 10° SSW 18:31:29 24° S 18:31:29 24° S visible
